Previsão horária em Jumilla

Hoje, 24 Junho, Quinta-feira

Tempo Temperatura Precipitação Vento Pressão Humidade
00:00 +18°C° 0 mm 2 m/s 707 mmHg 79%
01:00 +18°C° 0 mm 2 m/s 707 mmHg 80%
02:00 +18°C° 0 mm 1 m/s 707 mmHg 82%
03:00 +18°C° 0 mm 1 m/s 707 mmHg 83%
04:00 +18°C° 0 mm 1 m/s 707 mmHg 81%
05:00 +18°C° 0 mm 1 m/s 707 mmHg 79%
06:00 +18°C° 0 mm 1 m/s 707 mmHg 77%
07:00 +19°C° 0 mm 2 m/s 708 mmHg 69%
08:00 +20°C° 0 mm 2 m/s 708 mmHg 62%
09:00 +21°C° 0 mm 2 m/s 709 mmHg 54%
10:00 +24°C° 0 mm 3 m/s 709 mmHg 49%
11:00 +25°C° 0 mm 4 m/s 709 mmHg 44%
12:00 +26°C° 0 mm 4 m/s 709 mmHg 39%
13:00 +27°C° 0 mm 5 m/s 709 mmHg 39%
14:00 +27°C° 0 mm 5 m/s 708 mmHg 39%
15:00 +27°C° 0 mm 5 m/s 708 mmHg 39%
16:00 +26°C° 0 mm 5 m/s 708 mmHg 42%
17:00 +25°C° 0 mm 5 m/s 708 mmHg 45%
18:00 +25°C° 0 mm 4 m/s 708 mmHg 49%
19:00 +23°C° 0 mm 4 m/s 708 mmHg 53%
20:00 +21°C° 0 mm 3 m/s 709 mmHg 58%
21:00 +20°C° 0 mm 2 m/s 709 mmHg 63%
22:00 +20°C° 0 mm 2 m/s 709 mmHg 65%
23:00 +19°C° 0 mm 2 m/s 709 mmHg 67%

Amanhã, 25 Junho, Sexta-feira

Tempo Temperatura Precipitação Vento Pressão Humidade
00:00 +20°C° 0 mm 1 m/s 709 mmHg 69%
01:00 +19°C° 0 mm 1 m/s 708 mmHg 71%
02:00 +19°C° 0 mm 1 m/s 708 mmHg 73%
03:00 +17°C° 0 mm 0 m/s 708 mmHg 74%
04:00 +17°C° 0 mm 0 m/s 708 mmHg 72%
05:00 +17°C° 0 mm 0 m/s 708 mmHg 70%
06:00 +17°C° 0 mm 0 m/s 708 mmHg 68%
07:00 +21°C° 0 mm 1 m/s 708 mmHg 62%
08:00 +21°C° 0 mm 2 m/s 709 mmHg 55%
09:00 +24°C° 0 mm 3 m/s 709 mmHg 49%
10:00 +25°C° 0 mm 4 m/s 709 mmHg 46%
11:00 +26°C° 0 mm 4 m/s 709 mmHg 43%
12:00 +28°C° 0 mm 5 m/s 708 mmHg 40%
13:00 +28°C° 0 mm 5 m/s 708 mmHg 40%
14:00 +28°C° 0 mm 5 m/s 708 mmHg 41%
15:00 +28°C° 0 mm 5 m/s 707 mmHg 42%
16:00 +27°C° 0 mm 5 m/s 707 mmHg 43%
17:00 +27°C° 0 mm 4 m/s 707 mmHg 45%
18:00 +26°C° 0 mm 4 m/s 706 mmHg 46%
19:00 +25°C° 0 mm 4 m/s 707 mmHg 51%
20:00 +24°C° 0 mm 3 m/s 707 mmHg 56%
21:00 +21°C° 0 mm 3 m/s 707 mmHg 60%
22:00 +21°C° 0 mm 2 m/s 707 mmHg 63%
23:00 +20°C° 0 mm 2 m/s 707 mmHg 67%

Depois de amanhã, 26 Junho, Sábado

Tempo Temperatura Precipitação Vento Pressão Humidade
00:00 +20°C° 0 mm 1 m/s 707 mmHg 70%
01:00 +20°C° 0 mm 1 m/s 706 mmHg 69%
02:00 +20°C° 0 mm 1 m/s 706 mmHg 69%
03:00 +17°C° 0 mm 0 m/s 706 mmHg 69%
04:00 +18°C° 0 mm 0 m/s 706 mmHg 64%
05:00 +18°C° 0 mm 0 m/s 706 mmHg 58%
06:00 +19°C° 0 mm 0 m/s 706 mmHg 53%
07:00 +23°C° 0 mm 1 m/s 706 mmHg 46%
08:00 +24°C° 0 mm 2 m/s 706 mmHg 39%
09:00 +26°C° 0 mm 3 m/s 706 mmHg 33%
10:00 +27°C° 0 mm 3 m/s 706 mmHg 31%
11:00 +28°C° 0 mm 4 m/s 706 mmHg 29%
12:00 +29°C° 0 mm 4 m/s 706 mmHg 27%
13:00 +30°C° 0 mm 5 m/s 706 mmHg 27%
14:00 +30°C° 0 mm 5 m/s 705 mmHg 26%
15:00 +32°C° 0 mm 5 m/s 705 mmHg 26%
16:00 +30°C° 0 mm 5 m/s 705 mmHg 30%
17:00 +29°C° 0 mm 5 m/s 704 mmHg 33%
18:00 +28°C° 0 mm 5 m/s 704 mmHg 36%
19:00 +26°C° 0 mm 4 m/s 704 mmHg 42%
20:00 +25°C° 0 mm 3 m/s 704 mmHg 47%
21:00 +23°C° 0 mm 2 m/s 704 mmHg 53%
22:00 +23°C° 0 mm 2 m/s 704 mmHg 56%
23:00 +21°C° 0 mm 2 m/s 704 mmHg 59%

27 Junho, Domingo

Tempo Temperatura Precipitação Vento Pressão Humidade
00:00 +22°C° 0 mm 1 m/s 704 mmHg 62%
01:00 +21°C° 0 mm 1 m/s 703 mmHg 62%
02:00 +21°C° 0 mm 1 m/s 703 mmHg 63%
03:00 +21°C° 0 mm 1 m/s 703 mmHg 64%
04:00 +21°C° 0 mm 1 m/s 703 mmHg 60%
05:00 +22°C° 0 mm 1 m/s 703 mmHg 57%
06:00 +23°C° 0 mm 1 m/s 703 mmHg 54%
07:00 +25°C° 0 mm 1 m/s 703 mmHg 46%
08:00 +27°C° 0 mm 2 m/s 703 mmHg 38%
09:00 +29°C° 0 mm 2 m/s 703 mmHg 30%
10:00 +30°C° 0 mm 2 m/s 703 mmHg 27%
11:00 +31°C° 0 mm 3 m/s 703 mmHg 24%
12:00 +34°C° 0 mm 3 m/s 703 mmHg 21%
13:00 +34°C° 0 mm 4 m/s 703 mmHg 20%
14:00 +35°C° 0 mm 4 m/s 703 mmHg 19%
15:00 +35°C° 0 mm 5 m/s 703 mmHg 18%
16:00 +35°C° 0 mm 5 m/s 703 mmHg 18%
17:00 +34°C° 0 mm 5 m/s 703 mmHg 18%
18:00 +34°C° 0 mm 6 m/s 703 mmHg 19%
19:00 +32°C° 0 mm 4 m/s 703 mmHg 23%
20:00 +29°C° 0 mm 3 m/s 703 mmHg 27%
21:00 +27°C° 0 mm 2 m/s 703 mmHg 31%
22:00 +27°C° 0 mm 3 m/s 703 mmHg 31%
23:00 +26°C° 0 mm 3 m/s 704 mmHg 31%

28 Junho, Segunda-feira

Tempo Temperatura Precipitação Vento Pressão Humidade
00:00 +25°C° 0 mm 3 m/s 704 mmHg 30%
01:00 +24°C° 0 mm 3 m/s 704 mmHg 31%
02:00 +22°C° 0 mm 3 m/s 704 mmHg 32%
03:00 +22°C° 0 mm 3 m/s 704 mmHg 33%
04:00 +21°C° 0 mm 3 m/s 704 mmHg 37%
05:00 +21°C° 0 mm 2 m/s 704 mmHg 41%
06:00 +21°C° 0 mm 2 m/s 705 mmHg 45%
07:00 +23°C° 0 mm 1 m/s 705 mmHg 40%
08:00 +25°C° 0 mm 1 m/s 705 mmHg 36%
09:00 +26°C° 0 mm 1 m/s 706 mmHg 31%
10:00 +27°C° 0 mm 1 m/s 706 mmHg 28%
11:00 +28°C° 0 mm 1 m/s 706 mmHg 25%
12:00 +30°C° 0 mm 1 m/s 706 mmHg 21%
13:00 +30°C° 0 mm 2 m/s 706 mmHg 22%
14:00 +31°C° 0 mm 2 m/s 706 mmHg 23%
15:00 +31°C° 0 mm 3 m/s 705 mmHg 23%
16:00 +30°C° 0 mm 4 m/s 705 mmHg 31%
17:00 +28°C° 0 mm 5 m/s 705 mmHg 39%
18:00 +27°C° 0 mm 5 m/s 705 mmHg 47%
19:00 +26°C° 0 mm 4 m/s 706 mmHg 55%
20:00 +24°C° 0 mm 3 m/s 706 mmHg 62%
21:00 +23°C° 0 mm 2 m/s 707 mmHg 69%
22:00 +23°C° 0 mm 2 m/s 707 mmHg 71%
23:00 +22°C° 0 mm 1 m/s 707 mmHg 73%

29 Junho, Terça-feira

Tempo Temperatura Precipitação Vento Pressão Humidade
00:00 +22°C° 0 mm 1 m/s 706 mmHg 75%
01:00 +21°C° 0 mm 1 m/s 706 mmHg 78%
02:00 +21°C° 0 mm 1 m/s 706 mmHg 80%
03:00 +20°C° 0 mm 1 m/s 706 mmHg 83%
04:00 +20°C° 0 mm 1 m/s 706 mmHg 82%
05:00 +21°C° 0 mm 1 m/s 706 mmHg 81%
06:00 +21°C° 0 mm 1 m/s 707 mmHg 80%
07:00 +22°C° 0 mm 1 m/s 707 mmHg 70%
08:00 +23°C° 0 mm 2 m/s 707 mmHg 61%
09:00 +25°C° 0 mm 2 m/s 707 mmHg 52%
10:00 +26°C° 0 mm 3 m/s 707 mmHg 48%
11:00 +27°C° 0 mm 4 m/s 708 mmHg 45%
12:00 +28°C° 0 mm 5 m/s 708 mmHg 41%
13:00 +29°C° 0 mm 5 m/s 707 mmHg 41%
14:00 +29°C° 0 mm 6 m/s 707 mmHg 41%
15:00 +29°C° 0 mm 6 m/s 707 mmHg 42%
16:00 +28°C° 0 mm 6 m/s 707 mmHg 48%
17:00 +27°C° 0 mm 5 m/s 707 mmHg 54%
18:00 +26°C° 0 mm 5 m/s 707 mmHg 59%
19:00 +25°C° 0 mm 5 m/s 707 mmHg 65%
20:00 +22°C° 0 mm 4 m/s 707 mmHg 71%
21:00 +21°C° 0 mm 4 m/s 708 mmHg 77%
22:00 +21°C° 0 mm 3 m/s 708 mmHg 79%
23:00 +20°C° 0 mm 3 m/s 708 mmHg 81%
Mostrar mais

Necessitamos do seu Consentimento

A Meteoprog e os seus Fornecedores de Serviços podem armazenar e aceder a dados pessoais como cookies, identificadores do dispositivo ou outras tecnologias semelhantes existentes no seu dispositivo e processar estes dados para personalizar conteúdos e anúncios, assim como funcionalidades nas redes sociais e análise de tráfego.

  • Armazenar e/ou aceder a informações no seu dispositivo

    Os cookies, identificadores do dispositivo ou outras informações podem ser armazenados ou acedidos no seu dispositivo, para os fins acima indicados.

  • Anúncios e conteúdos personalizados, medição de anúncios e conteúdos, dados sobre o público-alvo e desenvolvimento de produtos

    Os anúncios e os conteúdos podem ser personalizados com base num perfil. Podem ser adicionados dados adicionais para uma maior personalização dos anúncios e dos conteúdos. A eficácia dos anúncios e dos conteúdos pode ser medida. Podem ser obtidas informações sobre o público que visualizou os anúncios e os conteúdos. Estes dados podem ser usados para desenvolver ou melhorar sistemas, softwares ou a experiência do utilizador.

Ao clicar em "Eu concordo”, permitirá o uso de cookies, identificadores do dispositivo e web beacons mencionados ou outras tecnologias semelhantes. As configurações do navegador do seu dispositivo podem ser alteradas.

Para certos fins, podem ser invocados interesses legítimos ao invés de consentimento. Pode ler mais informação sobre este assunto na nossa Política de Privacidade e Cookies.